{"data":{"norad_id":60342,"intl_designator":"2024-136P","name":"STARLINK-32221","alt_names":[],"object_type":"PAYLOAD","status":"ACTIVE","operator":null,"country":"US","launch_date":"2024-08-02","launch_site_code":"AFETR","launch_vehicle":null,"mission":null,"orbit_class":"UNKNOWN","rcs_meters":null,"size_class":null,"mass_kg":null,"dimensions":null,"purposes":["comms"],"wikipedia_slug":null,"has_3d_model":false,"image_url":null,"decayed_at":null,"tle_current":{"epoch":"2026-09-21T05:42:04.171392Z","epoch_age_seconds":121832,"freshness":"FRESH","line1":"1 60342U 24136P   26264.23754828  .00000022  00000+0  11784-4 0  9998","line2":"2 60342  53.1600 245.9611 0001236  84.1388 275.9756 15.34393549119620","mean_motion":15.34393549,"eccentricity":0.0001236,"inclination_deg":53.16,"raan_deg":245.9611,"arg_perigee_deg":84.1388,"mean_anomaly_deg":275.9756,"bstar":1.1784e-5,"rev_number":11962,"period_min":93.848152642357,"perigee_km":461.8768837822,"apogee_km":463.56794422934,"semimajor_km":6840.8594140058,"source":"CELESTRAK","updated_at":"2026-09-22T09:00:49.221379Z"}}}